Location: Crocus Hill
(18.2167°N, 63.0667°W)
Time: 02:11:36
(UTC+00:00)

H-2A R/B - Pass Details

Date: 26 January 2020
Orbit: 503 x 540 km, 97.3° (Epoch: 06 February)

Event Time Altitude Azimuth Distance (km) Brightness Sun altitude
Rises 09:52:42 0° 19° (NNE) 2,670 6.4 -13.1°
Reaches altitude 10° 09:54:53 10° 25° (NNE) 1,773 5.5 -12.6°
Maximum altitude 09:58:35 47° 100° (E) 698 3.9 -11.7°
Drops below altitude 10° 10:02:13 10° 175° (S) 1,748 5.7 -10.9°
Sets 10:04:21 0° 181° (S) 2,627 6.5 -10.4°
